Tracking 22124 objects as of 23-Jan-2021
HD Live streaming from Space Station
objects crossing your sky now

SL-14 DEB

Track SL-14 DEB now!
10-day predictions


NORAD ID: 19174
Int'l Code: 1978-100R
Perigee: 1,470.1 km
Apogee: 1,712.1 km
Inclination: 81.9 °
Period: 117.8 minutes
Semi major axis: 7962 km
RCS: 0.0241 m2 (small)
Launch date: October 26, 1978
Source: Commonwealth of Independent States (former USSR) (CIS)
Launch site: PLESETSK MISSILE AND SPACE COMPLEX (PKMTR)

Note: This is SATELLITE DEBRIS
aabbcc
Your satellite tracking list
Your tracking list is empty




NASA's NSSDC Master Catalog

Two Line Element Set (TLE):
1 19174U 78100R   21021.50834663  .00000019  00000-0  10766-3 0  9992
2 19174  81.9016 219.5697 0151971 260.7121 124.8828 12.21982291457748
Source of the keplerian elements: AFSPC